Showing default

OPS 3899, 14139

Orbit data source: Space-Track

OPS 3899, 14139 is an American payload satellite in SSO that was launched on Mon, 20 Jun 1983 UTC via a TITAN 34D launch vehicle from the Air Force Western Test Range (AFWTR). Payload-class satellites include a variety of spacecraft equipped with specific instruments for various scientific and technological missions. These include communications satellites like Starlink; space stations such as the ISS; scientific satellites like the Hubble; Earth observation satellites from companies like Planet Labs, Umbra, and HawkEye 360; GPS; miniature CubeSats for education and research; and military/defense satellites.

Loading next visibility...
Identifier
14139, 1983-060C
Orbit
SSO
Country
Flag of USUS
Related business
Manufacturer
LMSC
Mission
Spacecraft
Bus & Motor
SSU C, Unknown motor
Mass
~120 kg wet, ~100 kg dry
Launch date (UTC)
1983-06-20 (43 years ago)
Launch vehicle
TITAN 34D
Launch site
Air Force Western Test Range (AFWTR)
Object type
Payload
Rocket body
Debris
Shape & HBR
Unknown
Radar Cross Section
Large (>1 m²)

Expand to show TLE details & history
Last TLE update: 13 hours ago

TLE from 13 hours ago
0 OPS 3899
1 14139U 83060C   26094.80381870 -.00000203  00000-0 -66567-3 0  9991
2 14139  96.6803  16.8417 0001061 133.0217 227.0983 12.93984768326340
Epoch: 2026-04-04T19:17Z
TLE epoch observation values (Epoch: 2026-04-04T19:17:29.935Z)
Latitude
-0.00004°
Longitude
-105.65137°
Altitude
1,289.097 km
Speed
7.211 km/s
True Right ascension
01h 07m 22s
True Declination
0° 00' 00"
Sunlit
Object was in daylight at epoch
Visualization orbit readout
Latitude
Unknown
Longitude
Unknown
Altitude
Unknown
Speed
Unknown
Apparent Right ascension
Unknown
Apparent Declination
Unknown
Sunlit
N/A
Visualization observer readout
Local Sidereal Time
14:19:03
Azimuth
Unknown
Elevation
Unknown
Doppler factor
Unknown
Orbital elements
Apogee altitude
1,283.811 km
Perigee altitude
1,282.185 km
Semi-major axis
7,661.135 km
Eccentricity
0.00011
Inclination
96.6803°
RAAN
16.8417°
Arg. of periapsis
133.0217°
True anomaly
227.08939°
Mean anomaly
227.0983°
Eccentric anomaly
227.09385°
Mean motion
3.23671 °/min
Orbital period
111.22 mins
BSTAR
-0.00066567
Loading maneuver chart data...
Computing Atmospheric mass density...
Loading historical data...
Loading historical data...
Loading historical data...
Loading historical data...
Loading historical data...
Loading historical data...
Loading historical data...
Other satellites on launch #60 in the year 1983 (1983-06-20 UTC)

Documentation

Showing up to 5 results
|